Regional Weather Roundup
Issued by NWS

Home | Current Version | Previous Version | Graphics & Text | Print | Product List | Glossary On
Versions: 1 2 3 4 5 6 7 8 9 10 11 12 13 14 15 16 17 18 19 20 21 22 23 24 25 26 27 28 29 30 31 32 33 34 35 36 37 38 39 40 41 42 43 44 45 46 47 48 49 50
000
ASUS43 KFSD 191002
RWRSD

WEATHER ROUNDUP FOR SOUTH DAKOTA
NATIONAL WEATHER SERVICE SIOUX FALLS SD
500 AM CDT SAT APR 19 2014

NOTE: "FAIR" INDICATES FEW OR NO CLOUDS BELOW 12,000 FEET WITH NO
SIGNIFICANT WEATHER AND/OR OBSTRUCTIONS TO VISIBILITY.


SDZ001>005-009-010-012>017-191100-
NORTHWEST AND NORTH CENTRAL SOUTH DAKOTA

CITY           SKY/WX    TMP DP  RH WIND       PRES   REMARKS
FAITH            N/A     41  33  73 W8        29.88R
MOBRIDGE       PTCLDY    45  35  68 NW10      29.78R
$$

SDZ012>016-024>037-041>051-057-063-072>074-191100-
SOUTHWEST AND SOUTH CENTRAL SOUTH DAKOTA

CITY           SKY/WX    TMP DP  RH WIND       PRES   REMARKS
RAPID CTY ARPT CLOUDY    45  19  35 NW14      29.91R
PIERRE         MOCLDY    47  35  63 W10       29.85R
CUSTER         CLOUDY    39  31  72 NW7       29.94R
ELLSWORTH AFB  CLOUDY    48  19  32 N20       29.90R
PHILIP         PTCLDY    45  34  65 W9        29.90R
PINE RIDGE     PTCLDY    46  34  62 E8        29.95R
WINNER         FAIR      56  40  55 NW18G26   29.89R
$$

SDZ004>011-016>023-039-040-191100-
NORTHEAST SOUTH DAKOTA

CITY           SKY/WX    TMP DP  RH WIND       PRES   REMARKS
ABERDEEN       CLOUDY    53  41  63 NW24G36   29.76R
WATERTOWN      CLOUDY    53  41  63 S23G32    29.80F
SISSETON         N/A     47  40  76 S16       29.75F
$$

SDZ017-020-022-023-036>040-048>070-191100-
SOUTHEAST SOUTH DAKOTA

CITY           SKY/WX    TMP DP  RH WIND       PRES   REMARKS
SIOUX FALLS    CLOUDY    55  40  56 S21G29    29.93S
HURON          PTCLDY    58  42  55 S14G25    29.78R
CHAMBERLAIN      N/A     55  41  59 NW17G29   29.86R
MITCHELL       MOCLDY    59  43  55 S14       29.85R
YANKTON        MOCLDY    57  41  54 S13G22    29.93R
$$

ABBREVIATIONS USED IN REMARKS
   TC - TEMPERATURE IN CELSIUS
  WCI - WIND CHILL INDEX
   HX - HEAT INDEX
  VSB - VISIBILITY




USA.gov is the U.S. government's official web portal to all federal, state and local government web resources and services.